timestamp,wind_dir_avg,wind_spd_avg,wind_spd_max_dir,wind_spd_gust,battery_voltage,lat,long
2022-06-14 00:04:01+00:00,215.0,5.33,217.0,5.91,13.21,47.59359,-54.27349
2022-06-14 00:14:01+00:00,217.0,5.03,219.0,5.51,12.65,47.59359,-54.27349
2022-06-14 00:24:01+00:00,212.0,4.54,211.0,5.24,12.65,47.59359,-54.27349
2022-06-14 00:34:01+00:00,211.0,4.1,210.0,4.51,12.65,47.59359,-54.27349
2022-06-14 00:44:01+00:00,212.0,4.34,212.0,4.74,12.65,47.59359,-54.27349
2022-06-14 00:54:01+00:00,215.0,4.56,210.0,4.93,12.65,47.59359,-54.27349
2022-06-14 01:04:01+00:00,216.0,3.94,216.0,4.29,12.65,47.59359,-54.27349
2022-06-14 01:14:01+00:00,209.0,3.61,209.0,4.06,12.41,47.59359,-54.27349
2022-06-14 01:24:01+00:00,206.0,4.1,209.0,4.47,12.41,47.59359,-54.27349
2022-06-14 01:34:01+00:00,208.0,4.71,210.0,5.06,12.41,47.59359,-54.27349
2022-06-14 01:44:01+00:00,209.0,4.54,211.0,4.94,12.41,47.59359,-54.27349
2022-06-14 01:54:01+00:00,232.0,7.11,235.0,7.76,12.41,47.59359,-54.27349
2022-06-14 02:04:01+00:00,228.0,6.66,231.0,7.39,12.41,47.59359,-54.27349
2022-06-14 02:14:00+00:00,231.0,6.52,233.0,7.46,12.41,47.59359,-54.27349
2022-06-14 02:24:00+00:00,235.0,5.95,241.0,7.14,12.41,47.59359,-54.27349
2022-06-14 02:34:00+00:00,232.0,6.87,236.0,7.58,12.41,47.59359,-54.27349
2022-06-14 02:44:00+00:00,235.0,6.75,237.0,7.47,12.41,47.59359,-54.27349
2022-06-14 02:54:00+00:00,238.0,6.38,238.0,7.1,12.41,47.59359,-54.27349
2022-06-14 03:04:00+00:00,236.0,5.09,241.0,6.02,12.41,47.59359,-54.27349
2022-06-14 03:14:01+00:00,239.0,4.32,245.0,5.61,12.41,47.59359,-54.27349
2022-06-14 03:24:01+00:00,208.0,1.32,215.0,1.7,12.41,47.59359,-54.27349
2022-06-14 03:34:01+00:00,197.0,0.94,208.0,1.27,12.41,47.59359,-54.27349
2022-06-14 03:44:01+00:00,295.0,0.46,289.0,0.72,12.41,47.59359,-54.27349
2022-06-14 03:54:01+00:00,199.0,1.03,222.0,1.35,12.41,47.59359,-54.27349
2022-06-14 04:04:01+00:00,185.0,1.2,192.0,1.42,12.41,47.59359,-54.27349
2022-06-14 04:14:01+00:00,156.0,0.65,158.0,0.81,12.33,47.59359,-54.27349
2022-06-14 04:24:01+00:00,36.0,0.05,341.0,0.19,12.33,47.59359,-54.27349
2022-06-14 04:34:01+00:00,357.0,1.3,359.0,1.53,12.33,47.59359,-54.27349
2022-06-14 04:44:01+00:00,13.0,1.4,7.0,1.71,12.33,47.59359,-54.27349
2022-06-14 04:54:01+00:00,339.0,0.48,342.0,0.64,12.33,47.59359,-54.27349
2022-06-14 05:04:01+00:00,37.0,0.67,15.0,0.92,12.33,47.59359,-54.27349
2022-06-14 05:14:00+00:00,53.0,0.8,60.0,1.16,12.25,47.59359,-54.27349
2022-06-14 05:24:00+00:00,16.0,1.24,17.0,1.46,12.25,47.59359,-54.27349
2022-06-14 05:34:00+00:00,20.0,1.22,17.0,1.84,12.25,47.59359,-54.27349
2022-06-14 05:44:00+00:00,58.0,1.7,77.0,4.93,12.25,47.59359,-54.27349
2022-06-14 05:54:00+00:00,110.0,0.74,120.0,0.97,12.25,47.59359,-54.27349
2022-06-14 06:04:00+00:00,86.0,2.26,91.0,5.15,12.25,47.59359,-54.27349
2022-06-14 06:14:00+00:00,71.0,2.71,80.0,4.95,12.41,47.59359,-54.27349
2022-06-14 06:24:00+00:00,48.0,0.89,61.0,1.35,12.41,47.59359,-54.27349
2022-06-14 06:34:00+00:00,66.0,1.44,75.0,3.91,12.41,47.59359,-54.27349
2022-06-14 06:44:00+00:00,48.0,1.67,78.0,5.18,12.41,47.59359,-54.27349
2022-06-14 06:54:00+00:00,71.0,4.92,75.0,6.24,12.41,47.59359,-54.27349
2022-06-14 07:04:00+00:00,28.0,1.33,27.0,1.56,12.41,47.59359,-54.27349
2022-06-14 07:14:01+00:00,82.0,0.48,48.0,0.78,12.33,47.59359,-54.27349
2022-06-14 07:24:01+00:00,31.0,1.08,29.0,1.29,12.33,47.59359,-54.27349
2022-06-14 07:34:01+00:00,52.0,1.36,63.0,1.91,12.33,47.59359,-54.27349
2022-06-14 07:44:01+00:00,70.0,5.07,72.0,6.32,12.33,47.59359,-54.27349
2022-06-14 07:54:01+00:00,36.0,2.05,65.0,4.04,12.33,47.59359,-54.27349
2022-06-14 08:04:01+00:00,75.0,5.26,77.0,5.98,12.33,47.59359,-54.27349
2022-06-14 08:14:00+00:00,43.0,2.22,55.0,3.46,12.25,47.59359,-54.27349
2022-06-14 08:24:00+00:00,68.0,1.35,79.0,3.29,12.25,47.59359,-54.27349
2022-06-14 08:34:00+00:00,44.0,1.62,57.0,2.37,12.25,47.59359,-54.27349
2022-06-14 08:44:00+00:00,50.0,1.91,62.0,3.25,12.25,47.59359,-54.27349
2022-06-14 08:54:00+00:00,55.0,1.51,73.0,2.77,12.25,47.59359,-54.27349
2022-06-14 09:04:00+00:00,54.0,2.82,64.0,5.03,12.25,47.59359,-54.27349
2022-06-14 09:14:01+00:00,44.0,1.95,58.0,3.24,12.97,47.59359,-54.27349
2022-06-14 09:24:01+00:00,41.0,1.48,61.0,2.16,12.97,47.59359,-54.27349
2022-06-14 09:34:01+00:00,50.0,2.69,59.0,3.51,12.97,47.59359,-54.27349
2022-06-14 09:44:01+00:00,61.0,2.07,71.0,2.4,12.97,47.59359,-54.27349
2022-06-14 09:54:01+00:00,90.0,1.4,92.0,2.1,12.97,47.59359,-54.27349
2022-06-14 10:04:01+00:00,67.0,2.67,76.0,3.91,12.97,47.59359,-54.27349
2022-06-14 10:14:01+00:00,56.0,3.02,65.0,4.16,13.6,47.59359,-54.27349
2022-06-14 10:24:01+00:00,70.0,3.16,77.0,4.44,13.6,47.59359,-54.27349
2022-06-14 10:34:01+00:00,67.0,3.2,75.0,4.47,13.6,47.59359,-54.27349
2022-06-14 10:44:01+00:00,55.0,3.29,63.0,4.38,13.6,47.59359,-54.27349
2022-06-14 10:54:01+00:00,52.0,3.47,52.0,3.48,13.6,47.59359,-54.27349
2022-06-14 11:04:01+00:00,315.0,0.01,52.0,0.0,13.6,47.59359,-54.27349
2022-06-14 11:14:00+00:00,315.0,0.01,69.0,0.0,13.6,47.59359,-54.27349
2022-06-14 11:24:00+00:00,315.0,0.01,38.0,0.0,13.6,47.59359,-54.27349
2022-06-14 11:34:00+00:00,315.0,0.01,38.0,0.0,13.6,47.59359,-54.27349
2022-06-14 11:44:00+00:00,315.0,0.01,38.0,0.0,13.6,47.59359,-54.27349
2022-06-14 11:54:00+00:00,315.0,0.01,38.0,0.0,13.6,47.59359,-54.27349
2022-06-14 12:04:00+00:00,315.0,0.01,38.0,0.0,13.6,47.59359,-54.27349
2022-06-14 12:14:00+00:00,315.0,0.01,38.0,0.0,13.68,47.59359,-54.27349
2022-06-14 12:24:00+00:00,34.0,4.65,33.0,5.04,13.68,47.59359,-54.27349
2022-06-14 12:34:00+00:00,315.0,0.01,43.0,0.0,13.68,47.59359,-54.27349
2022-06-14 12:44:00+00:00,315.0,0.01,37.0,0.0,13.68,47.59359,-54.27349
2022-06-14 12:54:00+00:00,33.0,4.23,31.0,4.71,13.68,47.59359,-54.27349
2022-06-14 13:04:00+00:00,315.0,0.01,36.0,0.0,13.68,47.59359,-54.27349
2022-06-14 13:14:00+00:00,39.0,3.93,36.0,4.37,13.76,47.59359,-54.27349
2022-06-14 13:24:00+00:00,22.0,3.5,19.0,3.98,13.76,47.59359,-54.27349
2022-06-14 13:34:00+00:00,46.0,3.26,44.0,3.7,13.76,47.59359,-54.27349
2022-06-14 13:44:00+00:00,47.0,3.57,48.0,3.69,13.76,47.59359,-54.27349
2022-06-14 13:54:00+00:00,315.0,0.01,42.0,0.0,13.76,47.59359,-54.27349
2022-06-14 14:04:00+00:00,315.0,0.01,42.0,0.0,13.76,47.59359,-54.27349
2022-06-14 14:14:00+00:00,71.0,5.58,71.0,5.58,13.68,47.59359,-54.27349
2022-06-14 14:24:00+00:00,47.0,2.37,47.0,2.38,13.68,47.59359,-54.27349
2022-06-14 14:34:00+00:00,69.0,2.09,52.0,2.93,13.68,47.59359,-54.27349
2022-06-14 14:44:00+00:00,56.0,3.26,55.0,3.35,13.68,47.59359,-54.27349
2022-06-14 14:54:00+00:00,48.0,3.28,45.0,3.57,13.68,47.59359,-54.27349
2022-06-14 15:04:00+00:00,315.0,0.01,44.0,0.0,13.68,47.59359,-54.27349
2022-06-14 15:14:00+00:00,315.0,0.01,54.0,0.0,13.76,47.59359,-54.27349
2022-06-14 15:24:00+00:00,65.0,6.41,66.0,7.24,13.76,47.59359,-54.27349
2022-06-14 15:34:00+00:00,57.0,6.55,57.0,7.18,13.76,47.59359,-54.27349
2022-06-14 15:44:00+00:00,61.0,6.35,58.0,6.83,13.76,47.59359,-54.27349
2022-06-14 15:54:00+00:00,62.0,6.79,57.0,7.66,13.76,47.59359,-54.27349
2022-06-14 16:04:00+00:00,59.0,6.59,58.0,7.27,13.76,47.59359,-54.27349
2022-06-14 16:14:01+00:00,55.0,6.37,56.0,6.48,13.6,47.59359,-54.27349
2022-06-14 16:24:01+00:00,62.0,7.16,66.0,9.19,13.6,47.59359,-54.27349
2022-06-14 16:34:01+00:00,60.0,7.68,65.0,8.48,13.6,47.59359,-54.27349
2022-06-14 16:44:01+00:00,60.0,8.83,64.0,10.21,13.6,47.59359,-54.27349
2022-06-14 16:54:01+00:00,59.0,8.68,56.0,10.14,13.6,47.59359,-54.27349
2022-06-14 17:04:01+00:00,57.0,8.26,56.0,9.02,13.6,47.59359,-54.27349
2022-06-14 17:14:01+00:00,65.0,7.82,68.0,9.01,13.68,47.59359,-54.27349
2022-06-14 17:24:01+00:00,63.0,8.46,66.0,9.38,13.68,47.59359,-54.27349
2022-06-14 17:34:01+00:00,59.0,8.32,57.0,9.61,13.68,47.59359,-54.27349
2022-06-14 17:44:01+00:00,60.0,7.99,62.0,9.78,13.68,47.59359,-54.27349
2022-06-14 17:54:01+00:00,66.0,7.96,67.0,10.04,13.68,47.59359,-54.27349
2022-06-14 18:04:01+00:00,72.0,9.11,75.0,10.35,13.68,47.59359,-54.27349
2022-06-14 18:14:00+00:00,75.0,9.69,75.0,10.5,13.68,47.59359,-54.27349
2022-06-14 18:24:00+00:00,76.0,8.53,76.0,10.33,13.68,47.59359,-54.27349
2022-06-14 18:34:00+00:00,73.0,8.59,73.0,10.52,13.68,47.59359,-54.27349
2022-06-14 18:44:00+00:00,74.0,8.35,77.0,9.96,13.68,47.59359,-54.27349
2022-06-14 18:54:00+00:00,67.0,6.15,72.0,7.21,13.68,47.59359,-54.27349
2022-06-14 19:04:00+00:00,71.0,8.27,77.0,10.21,13.68,47.59359,-54.27349
2022-06-14 19:14:01+00:00,69.0,7.11,73.0,8.74,13.68,47.59359,-54.27349
2022-06-14 19:24:01+00:00,69.0,6.73,68.0,7.78,13.68,47.59359,-54.27349
2022-06-14 19:34:01+00:00,63.0,6.93,63.0,7.78,13.68,47.59359,-54.27349
2022-06-14 19:44:01+00:00,63.0,7.6,62.0,8.75,13.68,47.59359,-54.27349
2022-06-14 19:54:01+00:00,62.0,6.83,61.0,7.88,13.68,47.59359,-54.27349
2022-06-14 20:04:01+00:00,62.0,6.55,62.0,7.78,13.68,47.59359,-54.27349
2022-06-14 20:14:00+00:00,64.0,6.46,63.0,7.99,13.68,47.59359,-54.27349
2022-06-14 20:24:00+00:00,56.0,6.81,59.0,7.97,13.68,47.59359,-54.27349
2022-06-14 20:34:00+00:00,55.0,6.82,58.0,7.79,13.68,47.59359,-54.27349
2022-06-14 20:44:00+00:00,51.0,7.55,54.0,8.83,13.68,47.59359,-54.27349
2022-06-14 20:54:00+00:00,53.0,6.67,58.0,8.09,13.68,47.59359,-54.27349
2022-06-14 21:04:00+00:00,53.0,7.49,51.0,8.59,13.68,47.59359,-54.27349
2022-06-14 21:14:01+00:00,54.0,6.17,52.0,6.42,13.6,47.59359,-54.27349
2022-06-14 21:24:01+00:00,49.0,6.94,54.0,8.17,13.6,47.59359,-54.27349
2022-06-14 21:34:01+00:00,49.0,6.6,52.0,6.98,13.6,47.59359,-54.27349
2022-06-14 21:44:01+00:00,45.0,7.4,49.0,8.26,13.6,47.59359,-54.27349
2022-06-14 21:54:01+00:00,49.0,7.19,47.0,8.16,13.6,47.59359,-54.27349
2022-06-14 22:04:01+00:00,52.0,7.5,50.0,8.49,13.6,47.59359,-54.27349
2022-06-14 22:14:00+00:00,48.0,6.96,47.0,7.61,13.37,47.59359,-54.27349
2022-06-14 22:24:00+00:00,50.0,6.75,47.0,7.62,13.37,47.59359,-54.27349
2022-06-14 22:34:00+00:00,44.0,7.63,43.0,8.37,13.37,47.59359,-54.27349
2022-06-14 22:44:00+00:00,41.0,9.26,36.0,10.37,13.37,47.59359,-54.27349
2022-06-14 22:54:00+00:00,44.0,8.33,43.0,9.55,13.37,47.59359,-54.27349
2022-06-14 23:04:00+00:00,45.0,9.17,43.0,10.38,13.37,47.59359,-54.27349
2022-06-14 23:14:01+00:00,43.0,9.92,40.0,11.45,12.97,47.59359,-54.27349
2022-06-14 23:24:01+00:00,43.0,8.55,47.0,9.52,12.97,47.59359,-54.27349
2022-06-14 23:34:01+00:00,47.0,9.16,45.0,10.28,12.97,47.59359,-54.27349
2022-06-14 23:44:01+00:00,48.0,8.82,48.0,10.13,12.97,47.59359,-54.27349
2022-06-14 23:54:01+00:00,49.0,9.53,49.0,10.33,12.97,47.59359,-54.27349
